Flag for U.S.A. Weather past 2 weeks in Lawrence, Kansas, U.S.A.

Now
23 °F

Mostly cloudy.


Feels Like: 15 °F
Forecast: 11 / 25 °F
Wind: 7 mph from Southeast

Location: Lawrence Municipal Airport

Current Time: Feb 28, 2015 at 5:56:35 PM

Latest Report: Feb 28, 2015 at 4:52 PM


Visibility: 6 mi

Pressure: 30.42 "Hg

Humidity: 81%

Dew point: 18 °F

Location of LawrenceLocation

Historic Weather in Lawrence — Graph

°F

Lawrence temperature yesterday

Maximum temperature yesterday: 19 °F (at 4:52 PM)
Minimum temperature yesterday: 0 °F (at 3:52 AM)
Average temperature yesterday: 11 °F

Past Weeks' High & Low Weather Summary

 TemperatureHumidityPressure
High54 °F (Feb 25, 2:52 PM)100% (Feb 21, 1:52 AM)30.83 "Hg (Feb 21, 1:52 AM)
Low0 °F (Feb 27, 3:52 AM)25% (Feb 14, 2:52 PM)29.72 "Hg (Feb 25, 3:52 PM)
Average21 °F65%30.31 "Hg
* Reported Feb 13 4:52 PM — Feb 28 4:04 PM, Lawrence, Weather by CustomWeather, © 2015

Note: Actual official high and low records may vary slightly from our data, if they occured in-between our weather recording intervals... More about our weather records

Advertising

Lawrence weather history for previous 24 hours

 ConditionsComfort  
Time TempWeatherWind HumidityBarometerVisibility
4:04 PM
Sat, Feb 28
23 °FOvercast.7 mph81%30.41 "Hg4 mi
2:52 PM23 °FOvercast.7 mph81%30.45 "Hg6 mi
1:52 PM22 °FLight snow. Ice fog.8 mph85%30.47 "Hg1 mi
1:01 PM21 °FLight snow. Ice fog.7 mph85%30.45 "Hg1 mi
11:59 AM21 °FLight snow. Cloudy.9 mph81%30.48 "Hg2 mi
10:52 AM20 °FLight snow. Ice fog.7 mph85%30.54 "Hg1 mi
9:52 AM19 °FLight snow. Ice fog.8 mph85%30.56 "Hg1 mi
8:52 AM19 °FLight snow. Mostly cloudy.9 mph77%30.57 "Hg1 mi
7:52 AM18 °FOvercast.7 mph71%30.54 "Hg10 mi
6:52 AM16 °FOvercast.7 mph71%30.54 "Hg10 mi
5:52 AM16 °FOvercast.6 mph71%30.56 "Hg10 mi
4:52 AM15 °FPassing clouds.5 mph67%30.56 "Hg10 mi
3:52 AM14 °FOvercast.5 mph73%30.55 "Hg10 mi
2:52 AM13 °FOvercast.3 mph77%30.57 "Hg10 mi
1:52 AM13 °FPassing clouds.6 mph70%30.58 "Hg10 mi
12:52 AM14 °FMostly cloudy.5 mph71%30.58 "Hg10 mi
11:52 PM
Fri, Feb 27
15 °FOvercast.5 mph64%30.59 "Hg10 mi
10:52 PM15 °FPassing clouds.7 mph61%30.60 "Hg10 mi
9:52 PM16 °FOvercast.6 mph59%30.60 "Hg10 mi
8:52 PM15 °FPassing clouds.6 mph56%30.61 "Hg10 mi
7:52 PM17 °FOvercast.5 mph51%30.60 "Hg10 mi
6:52 PM15 °FOvercast.3 mph53%30.61 "Hg10 mi
5:52 PM18 °FOvercast.5 mph45%30.61 "Hg10 mi
Weather by CustomWeather, © 2015

See weather overviewHow to use our weather pages